Weather History for Buffalo, WY

Change the Weather History Date:

Wednesday, March 6, 2013

  Actual Average Record
Temperature  
Mean Temperature 36 °F 32 °F  
Max Temperature 52 °F 43 °F 63 °F (2006)
Min Temperature 19 °F 20 °F 5 °F (2003)
Degree Days  
Heating Degree Days 29 33  
Month to date heating degree days 191 204  
Since 1 July heating degree days 5140 5444  
Cooling Degree Days 0 0  
Month to date cooling degree days 0 0  
Year to date cooling degree days 0 0  
Moisture  
Dew Point 19 °F    
Average Humidity 51    
Maximum Humidity 69    
Minimum Humidity 32    
Precipitation  
Precipitation 0.00 in 0.03 in 0.20 in (2008)
Month to date precipitation T 0.13  
Year to date precipitation 0.61 0.90  
Sea Level Pressure  
Sea Level Pressure 29.85 in    
Wind  
Wind Speed 5 mph (SSE)    
Max Wind Speed 20 mph    
Max Gust Speed 29 mph    
Visibility 10 miles    
Events      
T = Trace of Precipitation, MM = Missing Value Source: NWS Daily Summary

Daily Weather History Graph

Daily Weather History Graph

Search for Another Location

Airport:

Trip Planner

Search our weather history database for the weather conditions in past years. The results will help you decide how hot, cold, wet, or windy it might be!

Date:

Astronomy

Mar. 06, 2013 Rise Set
Actual Time 6:34 AM MST 6:01 PM MST
Civil Twilight 6:05 AM MST 6:30 PM MST
Nautical Twilight 5:32 AM MST 7:04 PM MST
Astronomical Twilight 4:58 AM MST 7:38 PM MST
Moon 2:56 AM MST (3/6) 12:37 PM MST (3/6)
Length of Visible Light 12h 25m
Length of Day
11h 27m
Waning Crescent, 29% of the Moon is Illuminated
Mar 6
Waning Crescent
Mar 11
New
Mar 19
First Quarter
Mar 27
Full
Apr 2
Last Quarter

Hourly Weather History & Observations

Time (MST) Temp. Windchill Dew Point Humidity Pressure Visibility Wind Dir Wind Speed Gust Speed Precip Events Conditions
12:53 AM 21.9 °F 17.2 °F 10.9 °F 63% 30.06 in 10.0 mi WNW 3.5 mph - N/A   Clear
1:53 AM 19.9 °F - 10.9 °F 68% 30.06 in 10.0 mi Calm Calm - N/A   Clear
2:53 AM 23.0 °F 15.8 °F 10.9 °F 60% 30.02 in 10.0 mi SSW 5.8 mph - N/A   Clear
3:53 AM 24.1 °F - 10.0 °F 55% 30.01 in 10.0 mi Calm Calm - N/A   Clear
4:53 AM 25.0 °F - 9.0 °F 51% 30.00 in 10.0 mi Calm Calm - N/A   Clear
5:53 AM 23.0 °F 17.0 °F 10.9 °F 60% 30.01 in 10.0 mi South 4.6 mph - N/A   Clear
6:53 AM 26.1 °F - 10.0 °F 51% 29.99 in 10.0 mi Calm Calm - N/A   Clear
7:53 AM 32.0 °F 28.7 °F 12.0 °F 44% 29.96 in 10.0 mi SSE 3.5 mph - N/A   Clear
8:53 AM 34.0 °F 29.8 °F 14.0 °F 44% 29.96 in 10.0 mi SSE 4.6 mph - N/A   Clear
9:53 AM 37.0 °F 32.4 °F 19.0 °F 48% 29.92 in 10.0 mi SE 5.8 mph - N/A   Clear
10:53 AM 44.1 °F 39.0 °F 23.0 °F 43% 29.86 in 10.0 mi East 9.2 mph - N/A   Clear
11:53 AM 46.0 °F 41.4 °F 21.9 °F 39% 29.83 in 10.0 mi ESE 9.2 mph - N/A   Clear
12:53 PM 48.0 °F - 23.0 °F 37% 29.78 in 10.0 mi East 5.8 mph - N/A   Clear
1:53 PM 48.0 °F - 24.1 °F 39% 29.76 in 10.0 mi North 10.4 mph - N/A   Clear
2:53 PM 48.0 °F - 26.1 °F 42% 29.71 in 10.0 mi North 6.9 mph - N/A   Clear
3:53 PM 48.9 °F - 26.1 °F 41% 29.70 in 10.0 mi NNW 4.6 mph - N/A   Clear
4:53 PM 51.1 °F - 26.1 °F 38% 29.68 in 10.0 mi Variable 3.5 mph - N/A   Clear
5:53 PM 46.9 °F - 23.0 °F 39% 29.71 in 10.0 mi SSW 15.0 mph - N/A   Clear
6:53 PM 50.0 °F - 21.0 °F 32% 29.71 in 10.0 mi ESE 4.6 mph - N/A   Clear
7:53 PM 45.0 °F 41.8 °F 21.9 °F 40% 29.70 in 10.0 mi SW 5.8 mph - N/A   Clear
8:53 PM 39.0 °F 31.0 °F 25.0 °F 57% 29.72 in 10.0 mi NNW 13.8 mph - N/A   Partly Cloudy
9:53 PM 35.1 °F 28.6 °F 25.0 °F 67% 29.75 in 10.0 mi West 8.1 mph - N/A   Clear
10:53 PM 33.1 °F - 24.1 °F 70% 29.74 in 10.0 mi Calm Calm - N/A   Clear
11:53 PM 32.0 °F - 24.1 °F 73% 29.74 in 10.0 mi Calm Calm - N/A   Clear